Location: Asheville, NC
(35.6000°N, 82.5500°W)
Time: 22:59:02
(UTC-04:00)

CUTE-I - Pass Details

Date: 15 February 2018
Orbit: 810 x 826 km, 98.7° (Epoch: 20 May)

Event Time Altitude Azimuth Distance (km) Brightness Sun altitude
Rises 06:21:27 0° 21° (NNE) 3,358 ? -11.9°
Reaches altitude 10° 06:23:55 10° 27° (NNE) 2,423 ? -11.4°
Maximum altitude 06:29:01 44° 99° (E) 1,131 ? -10.4°
Drops below altitude 10° 06:34:06 10° 171° (S) 2,415 ? -9.3°
Sets 06:36:33 0° 178° (S) 3,345 ? -8.9°
